When you browse on this site, cookies collect data to enhance your experience and personalize the content and advertising you see.
Visit our Privacy Policy to learn more. By continuing to use the site, you agree to this use of cookies and data.
  • en France
  • Liste des pays
  • À 7 jours
  • Température de l'eau
  • Carte météo
  • Widgets météo
  • user-avatar
    Se connecter

    Météo par heure à Sarafovo

    Ce jour, 25 Janvier, Samedi

    Heure Température Précipitation Vent Pression Humidité
    00:00 +1°C° 0 mm 3 m/s 767 mmHg 74%
    01:00 0°C° 0 mm 3 m/s 766 mmHg 78%
    02:00 0°C° 0 mm 3 m/s 766 mmHg 81%
    03:00 0°C° 0 mm 3 m/s 765 mmHg 83%
    04:00 0°C° 0 mm 3 m/s 765 mmHg 86%
    05:00 0°C° 0 mm 3 m/s 765 mmHg 88%
    06:00 0°C° 0 mm 3 m/s 765 mmHg 87%
    07:00 0°C° 0 mm 3 m/s 764 mmHg 87%
    08:00 0°C° 0 mm 3 m/s 764 mmHg 86%
    09:00 +1°C° 0 mm 4 m/s 764 mmHg 76%
    10:00 +4°C° 0 mm 4 m/s 765 mmHg 66%
    11:00 +6°C° 0 mm 4 m/s 765 mmHg 55%
    12:00 +7°C° 0 mm 4 m/s 764 mmHg 53%
    13:00 +10°C° 0 mm 4 m/s 764 mmHg 50%
    14:00 +11°C° 0 mm 4 m/s 763 mmHg 47%
    15:00 +10°C° 0 mm 3 m/s 763 mmHg 52%
    16:00 +8°C° 0 mm 3 m/s 763 mmHg 57%
    17:00 +7°C° 0 mm 3 m/s 763 mmHg 62%
    18:00 +7°C° 0 mm 3 m/s 764 mmHg 64%
    19:00 +5°C° 0 mm 3 m/s 764 mmHg 67%
    20:00 +4°C° 0 mm 3 m/s 764 mmHg 69%
    21:00 +4°C° 0 mm 3 m/s 764 mmHg 69%
    22:00 +4°C° 0 mm 3 m/s 764 mmHg 70%
    23:00 +3°C° 0 mm 3 m/s 764 mmHg 70%

    Demain, 26 Janvier, Dimanche

    Heure Température Précipitation Vent Pression Humidité
    00:00 +3°C° 0 mm 3 m/s 764 mmHg 71%
    01:00 +4°C° 0 mm 2 m/s 764 mmHg 71%
    02:00 +4°C° 0 mm 2 m/s 764 mmHg 72%
    03:00 +4°C° 0 mm 2 m/s 764 mmHg 74%
    04:00 +4°C° 0 mm 2 m/s 764 mmHg 75%
    05:00 +3°C° 0 mm 2 m/s 764 mmHg 77%
    06:00 +3°C° 0 mm 2 m/s 764 mmHg 77%
    07:00 +3°C° 0 mm 2 m/s 764 mmHg 78%
    08:00 +3°C° 0 mm 2 m/s 765 mmHg 78%
    09:00 +5°C° 0 mm 2 m/s 765 mmHg 70%
    10:00 +7°C° 0 mm 2 m/s 765 mmHg 61%
    11:00 +9°C° 0 mm 2 m/s 765 mmHg 53%
    12:00 +10°C° 0 mm 2 m/s 765 mmHg 50%
    13:00 +12°C° 0 mm 2 m/s 764 mmHg 47%
    14:00 +13°C° 0 mm 2 m/s 764 mmHg 43%
    15:00 +12°C° 0 mm 1 m/s 764 mmHg 48%
    16:00 +11°C° 0 mm 1 m/s 764 mmHg 54%
    17:00 +10°C° 0 mm 1 m/s 764 mmHg 59%
    18:00 +9°C° 0 mm 1 m/s 764 mmHg 63%
    19:00 +8°C° 0 mm 1 m/s 764 mmHg 67%
    20:00 +7°C° 0 mm 1 m/s 764 mmHg 71%
    21:00 +7°C° 0 mm 1 m/s 764 mmHg 74%
    22:00 +6°C° 0 mm 0 m/s 764 mmHg 77%
    23:00 +6°C° 0 mm 0 m/s 764 mmHg 80%

    Après-demain, 27 Janvier, Lundi

    Heure Température Précipitation Vent Pression Humidité
    00:00 +6°C° 0 mm 1 m/s 763 mmHg 82%
    01:00 +6°C° 0 mm 1 m/s 763 mmHg 83%
    02:00 +6°C° 0 mm 1 m/s 763 mmHg 85%
    03:00 +6°C° 0 mm 1 m/s 762 mmHg 87%
    04:00 +5°C° 0 mm 0 m/s 762 mmHg 88%
    05:00 +5°C° 0 mm 0 m/s 762 mmHg 89%
    06:00 +5°C° 0 mm 0 m/s 762 mmHg 91%
    07:00 +6°C° 0 mm 1 m/s 762 mmHg 92%
    08:00 +6°C° 0 mm 1 m/s 762 mmHg 93%
    09:00 +8°C° 0 mm 1 m/s 762 mmHg 91%
    10:00 +8°C° 0 mm 0 m/s 761 mmHg 88%
    11:00 +9°C° 0 mm 0 m/s 761 mmHg 86%
    12:00 +11°C° 0 mm 1 m/s 761 mmHg 82%
    13:00 +12°C° 0 mm 1 m/s 760 mmHg 79%
    14:00 +12°C° 0 mm 1 m/s 760 mmHg 75%
    15:00 +12°C° 0 mm 1 m/s 760 mmHg 79%
    16:00 +11°C° 0 mm 1 m/s 759 mmHg 83%
    17:00 +10°C° 0 mm 1 m/s 759 mmHg 86%
    18:00 +10°C° 0.4 mm 1 m/s 759 mmHg 89%
    19:00 +10°C° 0.4 mm 1 m/s 759 mmHg 92%
    20:00 +9°C° 0.4 mm 0 m/s 759 mmHg 94%
    21:00 +9°C° 0.8 mm 0 m/s 759 mmHg 95%
    22:00 +9°C° 0.8 mm 0 m/s 759 mmHg 96%
    23:00 +10°C° 0.8 mm 1 m/s 759 mmHg 97%

    28 Janvier, Mardi

    Heure Température Précipitation Vent Pression Humidité
    00:00 +9°C° 1.1 mm 1 m/s 758 mmHg 96%
    01:00 +9°C° 1.1 mm 1 m/s 758 mmHg 95%
    02:00 +9°C° 1.1 mm 1 m/s 758 mmHg 94%
    03:00 +9°C° 0.2 mm 1 m/s 758 mmHg 92%
    04:00 +9°C° 0.2 mm 1 m/s 757 mmHg 89%
    05:00 +8°C° 0.2 mm 2 m/s 757 mmHg 87%
    06:00 +8°C° 0.1 mm 1 m/s 757 mmHg 85%
    07:00 +8°C° 0.1 mm 1 m/s 757 mmHg 82%
    08:00 +8°C° 0.1 mm 1 m/s 757 mmHg 80%
    09:00 +8°C° 0.1 mm 1 m/s 757 mmHg 77%
    10:00 +9°C° 0.1 mm 1 m/s 757 mmHg 73%
    11:00 +9°C° 0.1 mm 1 m/s 757 mmHg 70%
    12:00 +10°C° 0 mm 1 m/s 757 mmHg 66%
    13:00 +11°C° 0 mm 1 m/s 757 mmHg 62%
    14:00 +12°C° 0 mm 1 m/s 756 mmHg 58%
    15:00 +11°C° 0 mm 1 m/s 756 mmHg 62%
    16:00 +11°C° 0 mm 1 m/s 756 mmHg 67%
    17:00 +10°C° 0 mm 1 m/s 756 mmHg 71%
    18:00 +9°C° 0 mm 1 m/s 756 mmHg 74%
    19:00 +9°C° 0 mm 1 m/s 756 mmHg 78%
    20:00 +7°C° 0 mm 2 m/s 756 mmHg 81%
    21:00 +7°C° 0 mm 2 m/s 756 mmHg 84%
    22:00 +7°C° 0 mm 2 m/s 756 mmHg 86%
    23:00 +7°C° 0 mm 2 m/s 756 mmHg 88%

    29 Janvier, Mercredi

    Heure Température Précipitation Vent Pression Humidité
    00:00 +7°C° 0 mm 2 m/s 756 mmHg 89%
    01:00 +7°C° 0 mm 2 m/s 756 mmHg 90%
    02:00 +5°C° 0 mm 3 m/s 755 mmHg 92%
    03:00 +5°C° 0 mm 3 m/s 755 mmHg 92%
    04:00 +5°C° 0 mm 3 m/s 755 mmHg 92%
    05:00 +5°C° 0 mm 3 m/s 755 mmHg 92%
    06:00 +5°C° 0 mm 3 m/s 755 mmHg 92%
    07:00 +5°C° 0 mm 3 m/s 755 mmHg 92%
    08:00 +5°C° 0 mm 3 m/s 755 mmHg 92%
    09:00 +7°C° 0 mm 3 m/s 755 mmHg 86%
    10:00 +8°C° 0 mm 4 m/s 756 mmHg 79%
    11:00 +10°C° 0 mm 4 m/s 756 mmHg 73%
    12:00 +11°C° 0 mm 4 m/s 755 mmHg 68%
    13:00 +12°C° 0 mm 4 m/s 755 mmHg 63%
    14:00 +13°C° 0 mm 3 m/s 755 mmHg 58%
    15:00 +13°C° 0 mm 3 m/s 755 mmHg 63%
    16:00 +13°C° 0 mm 2 m/s 755 mmHg 67%
    17:00 +12°C° 0 mm 2 m/s 755 mmHg 71%
    18:00 +11°C° 0 mm 1 m/s 755 mmHg 73%
    19:00 +11°C° 0 mm 1 m/s 755 mmHg 75%
    20:00 +10°C° 0 mm 1 m/s 756 mmHg 77%
    21:00 +10°C° 0 mm 1 m/s 756 mmHg 79%
    22:00 +10°C° 0 mm 1 m/s 755 mmHg 80%
    23:00 +10°C° 0 mm 1 m/s 755 mmHg 82%

    30 Janvier, Jeudi

    Heure Température Précipitation Vent Pression Humidité
    00:00 +8°C° 0 mm 2 m/s 755 mmHg 82%
    01:00 +8°C° 0 mm 2 m/s 755 mmHg 83%
    02:00 +8°C° 0 mm 2 m/s 755 mmHg 84%
    03:00 +8°C° 0 mm 2 m/s 754 mmHg 84%
    04:00 +8°C° 0 mm 3 m/s 754 mmHg 83%
    05:00 +9°C° 0 mm 3 m/s 754 mmHg 83%
    06:00 +9°C° 0.2 mm 2 m/s 754 mmHg 84%
    07:00 +8°C° 0.2 mm 2 m/s 754 mmHg 85%
    08:00 +9°C° 0.2 mm 1 m/s 754 mmHg 87%
    09:00 +8°C° 0.9 mm 2 m/s 755 mmHg 86%
    10:00 +8°C° 0.9 mm 3 m/s 755 mmHg 86%
    11:00 +8°C° 0.9 mm 3 m/s 755 mmHg 86%
    12:00 +9°C° 0.2 mm 3 m/s 754 mmHg 83%
    13:00 +9°C° 0.2 mm 2 m/s 754 mmHg 81%
    14:00 +9°C° 0.2 mm 2 m/s 754 mmHg 78%
    15:00 +9°C° 0 mm 2 m/s 754 mmHg 77%
    16:00 +9°C° 0 mm 2 m/s 755 mmHg 77%
    17:00 +9°C° 0 mm 2 m/s 755 mmHg 76%
    18:00 +8°C° 0 mm 3 m/s 756 mmHg 75%
    19:00 +7°C° 0 mm 3 m/s 756 mmHg 74%
    20:00 +5°C° 0 mm 4 m/s 757 mmHg 72%
    21:00 +5°C° 0 mm 4 m/s 757 mmHg 74%
    22:00 +4°C° 0 mm 3 m/s 758 mmHg 76%
    23:00 +4°C° 0 mm 3 m/s 758 mmHg 78%
    Voir plus